星链-33995 (STARLINK-33995)

导读

STARLINK-33995是美国SpaceX星链星座中的一颗卫星,于2025年4月28日发射升空,隶属于Starlink卫星互联网项目。作为星链网络的组成部分,它将和其他星链卫星协同,为全球提供低延迟、高速率的宽带互联网服务,进一步扩充星链星座的覆盖规模与服务能力,推动全球卫星互联网布局完善。

基本信息
目录编号:
63706
目录名称:
STARLINK-33995
国际标识:
2025-087K
轨道中心:
EARTH
卫星名称:
星链-33995
卫星全名:
星链-33995 (STARLINK-33995)
卫星状态:
在轨 (已飞行412 天)
发射日期:
2025-04-28 UTC
国别 :
美国 (US)
星等 :
--
轨道信息
数据来源 国际轨道数据 AOE轨道数据
星历时间 2026-06-13T23:01:27+0800
12小时前
查看轨道信息
2026-06-09T05:00:00+0800
5天前
查看轨道信息
半长轴 6853.322km 6853.379km
偏心率 0.0001356 0.0001323
轨道倾角 53.158° 53.158°
近地点辐角 93.147° 99.995°
升交点赤经 134.240° 156.310°
平近点角 266.969° 353.690°
近地点 474.255km 474.335km
远地点 476.115km 476.149km
周期 94.105分钟 94.106分钟
每日圈数 15.302103 15.301912
详细信息
固有亮度:
5
最大亮度:
2.5
卫星平台:
Starlink V1.0
覆盖范围:
全球
运营商:
太空探索技术公司
运营商所在国:
美国
制造商(研发单位):
太空探索技术公司
制造商所在国:
美国
使用方式:
暂无
卫星简介
Starlink 计划是 SpaceX 推出的全球卫星互联网项目,通过发射低轨道卫星,为全球尤其是偏远地区提供高速、低延迟的互联网服务。自 2019 年起,Starlink 已部署数千颗卫星,旨在缩小全球数字鸿沟,推动互联网普及。该项目还为军事、航空等行业提供通信支持,带来广泛经济效益。
2D轨道图
3D轨道图
轨道高度分析图
轨道倾角分析图
轨道综合分析图
查看轨道综合分析图